Time,TemperatureF,DewpointF,PressureIn,WindDirection,WindDirectionDegrees,WindSpeedMPH,WindSpeedGustMPH,Humidity,HourlyPrecipIn,Conditions,Clouds,dailyrainin,SoftwareType,DateUTC
2013-04-10 00:00:00,65.7,48.1,0.00,SW,223,0.0,0.0,53,0.00,,---,0.00,VWS V13.01,2013-04-10 04:00:00,
2013-04-10 00:05:00,65.5,48.4,0.00,SW,223,0.0,0.0,54,0.00,,---,0.00,VWS V13.01,2013-04-10 04:05:00,
2013-04-10 00:10:00,65.5,48.9,0.00,SW,223,0.0,0.0,55,0.00,,---,0.00,VWS V13.01,2013-04-10 04:10:00,
2013-04-10 00:15:00,65.3,49.2,0.00,SW,223,0.0,0.0,56,0.00,,---,0.00,VWS V13.01,2013-04-10 04:15:00,
2013-04-10 00:21:00,65.3,49.2,0.00,SW,223,0.0,0.0,56,0.00,,---,0.00,VWS V13.01,2013-04-10 04:21:00,
2013-04-10 00:26:00,65.3,49.2,0.00,SW,223,0.0,0.0,56,0.00,,---,0.00,VWS V13.01,2013-04-10 04:26:00,
2013-04-10 00:31:00,65.1,49.0,0.00,SW,223,0.0,0.0,56,0.00,,---,0.00,VWS V13.01,2013-04-10 04:31:00,
2013-04-10 00:37:00,64.8,48.7,0.00,SW,223,0.0,0.0,56,0.00,,---,0.00,VWS V13.01,2013-04-10 04:37:00,
2013-04-10 00:42:00,64.6,48.5,0.00,SW,223,0.0,0.0,56,0.00,,---,0.00,VWS V13.01,2013-04-10 04:42:00,
2013-04-10 00:47:00,64.2,49.2,0.00,SW,223,0.0,0.0,58,0.00,,---,0.00,VWS V13.01,2013-04-10 04:47:00,
2013-04-10 00:52:00,64.2,49.2,0.00,SW,223,0.0,0.0,58,0.00,,---,0.00,VWS V13.01,2013-04-10 04:52:00,
2013-04-10 00:57:00,64.2,49.6,0.00,SW,223,0.0,0.0,59,0.00,,---,0.00,VWS V13.01,2013-04-10 04:57:00,
2013-04-10 01:02:00,64.2,49.6,0.00,SW,223,0.0,0.0,59,0.00,,---,0.00,VWS V13.01,2013-04-10 05:02:00,
2013-04-10 01:08:00,64.2,50.1,0.00,SW,223,0.0,0.0,60,0.00,,---,0.00,VWS V13.01,2013-04-10 05:08:00,
2013-04-10 01:13:00,64.0,50.3,0.00,SW,223,0.0,0.0,61,0.00,,---,0.00,VWS V13.01,2013-04-10 05:13:00,
2013-04-10 01:18:00,64.0,50.3,0.00,SW,223,0.0,0.0,61,0.00,,---,0.00,VWS V13.01,2013-04-10 05:18:00,
2013-04-10 01:23:00,64.2,50.5,0.00,SW,223,0.0,0.0,61,0.00,,---,0.00,VWS V13.01,2013-04-10 05:23:00,
2013-04-10 01:28:00,64.4,50.7,0.00,SW,223,0.0,0.0,61,0.00,,---,0.00,VWS V13.01,2013-04-10 05:28:00,
2013-04-10 01:33:00,64.4,50.7,0.00,SW,223,0.0,0.0,61,0.00,,---,0.00,VWS V13.01,2013-04-10 05:33:00,
2013-04-10 01:38:00,64.6,50.8,0.00,SW,223,0.0,0.0,61,0.00,,---,0.00,VWS V13.01,2013-04-10 05:38:00,
2013-04-10 01:43:00,64.4,50.7,0.00,SW,223,0.0,0.0,61,0.00,,---,0.00,VWS V13.01,2013-04-10 05:43:00,
2013-04-10 01:48:00,64.2,50.9,0.00,SW,223,0.0,0.0,62,0.00,,---,0.00,VWS V13.01,2013-04-10 05:48:00,
2013-04-10 01:53:00,64.2,50.9,0.00,SW,223,0.0,0.0,62,0.00,,---,0.00,VWS V13.01,2013-04-10 05:53:00,
2013-04-10 01:58:00,64.0,50.8,0.00,SW,223,0.0,0.0,62,0.00,,---,0.00,VWS V13.01,2013-04-10 05:58:00,
2013-04-10 02:03:00,64.0,51.2,0.00,SW,223,0.0,0.0,63,0.00,,---,0.00,VWS V13.01,2013-04-10 06:03:00,
2013-04-10 02:09:00,64.0,51.2,0.00,SW,223,0.0,0.0,63,0.00,,---,0.00,VWS V13.01,2013-04-10 06:09:00,
2013-04-10 02:14:00,64.0,51.2,0.00,SW,223,0.0,0.0,63,0.00,,---,0.00,VWS V13.01,2013-04-10 06:14:00,
2013-04-10 02:19:00,63.9,51.0,0.00,ENE,63,0.0,0.0,63,0.00,,---,0.00,VWS V13.01,2013-04-10 06:19:00,
2013-04-10 02:24:00,63.9,51.0,0.00,ENE,63,0.0,0.0,63,0.00,,---,0.00,VWS V13.01,2013-04-10 06:24:00,
2013-04-10 02:29:00,63.7,51.3,0.00,NE,56,0.0,0.0,64,0.00,,---,0.00,VWS V13.01,2013-04-10 06:29:00,
2013-04-10 02:34:00,63.5,51.1,0.00,NE,56,0.0,0.0,64,0.00,,---,0.00,VWS V13.01,2013-04-10 06:34:00,
2013-04-10 02:39:00,63.5,51.1,0.00,NE,56,0.0,0.0,64,0.00,,---,0.00,VWS V13.01,2013-04-10 06:39:00,
2013-04-10 02:44:00,63.5,51.5,0.00,NE,56,0.0,0.0,65,0.00,,---,0.00,VWS V13.01,2013-04-10 06:44:00,
2013-04-10 02:49:00,63.7,51.3,0.00,NE,56,0.0,0.0,64,0.00,,---,0.00,VWS V13.01,2013-04-10 06:49:00,
2013-04-10 02:54:00,63.9,51.5,0.00,NE,56,0.0,0.0,64,0.00,,---,0.00,VWS V13.01,2013-04-10 06:54:00,
2013-04-10 02:59:00,63.9,51.9,0.00,NE,56,0.0,0.0,65,0.00,,---,0.00,VWS V13.01,2013-04-10 06:59:00,
2013-04-10 03:04:00,63.9,51.9,0.00,NE,56,0.0,0.0,65,0.00,,---,0.00,VWS V13.01,2013-04-10 07:04:00,
2013-04-10 03:09:00,63.9,51.9,0.00,NE,56,0.0,0.0,65,0.00,,---,0.00,VWS V13.01,2013-04-10 07:09:00,
2013-04-10 03:14:00,64.0,52.0,0.00,NE,56,0.0,0.0,65,0.00,,---,0.00,VWS V13.01,2013-04-10 07:14:00,
2013-04-10 03:20:00,64.0,52.0,0.00,NE,56,0.0,0.0,65,0.00,,---,0.00,VWS V13.01,2013-04-10 07:20:00,
2013-04-10 03:25:00,63.9,51.9,0.00,NE,56,0.0,0.0,65,0.00,,---,0.00,VWS V13.01,2013-04-10 07:25:00,
2013-04-10 03:30:00,63.9,51.9,0.00,NE,56,0.0,0.0,65,0.00,,---,0.00,VWS V13.01,2013-04-10 07:30:00,
2013-04-10 03:35:00,63.9,51.9,0.00,NE,56,0.0,0.0,65,0.00,,---,0.00,VWS V13.01,2013-04-10 07:35:00,
2013-04-10 03:40:00,63.9,51.9,0.00,NE,56,0.0,0.0,65,0.00,,---,0.00,VWS V13.01,2013-04-10 07:40:00,
2013-04-10 03:45:00,63.9,51.9,0.00,NE,56,0.0,0.0,65,0.00,,---,0.00,VWS V13.01,2013-04-10 07:45:00,
2013-04-10 04:08:00,63.5,52.0,0.00,SW,233,0.0,0.0,66,0.00,,---,0.00,VWS V13.01,2013-04-10 08:08:00,
2013-04-10 04:13:00,63.7,51.7,0.00,WSW,249,0.0,0.0,65,0.00,,---,0.00,VWS V13.01,2013-04-10 08:13:00,
2013-04-10 04:18:00,63.5,51.5,0.00,WSW,249,0.0,0.0,65,0.00,,---,0.00,VWS V13.01,2013-04-10 08:18:00,
2013-04-10 04:23:00,63.5,52.0,0.00,WSW,249,0.0,0.0,66,0.00,,---,0.00,VWS V13.01,2013-04-10 08:23:00,
2013-04-10 04:28:00,63.3,51.8,0.00,WSW,249,0.0,0.0,66,0.00,,---,0.00,VWS V13.01,2013-04-10 08:28:00,
2013-04-10 04:33:00,63.3,51.8,0.00,WSW,249,0.0,0.0,66,0.00,,---,0.00,VWS V13.01,2013-04-10 08:33:00,
2013-04-10 04:38:00,63.3,51.8,0.00,WSW,249,0.0,0.0,66,0.00,,---,0.00,VWS V13.01,2013-04-10 08:38:00,
2013-04-10 04:43:00,63.3,51.8,0.00,SW,232,0.0,0.0,66,0.00,,---,0.00,VWS V13.01,2013-04-10 08:43:00,
2013-04-10 04:48:00,63.5,52.0,0.00,SW,217,0.0,0.0,66,0.00,,---,0.00,VWS V13.01,2013-04-10 08:48:00,
2013-04-10 04:53:00,63.7,52.1,0.00,SW,226,0.0,0.0,66,0.00,,---,0.00,VWS V13.01,2013-04-10 08:53:00,
2013-04-10 04:59:00,63.9,52.3,0.00,WNW,302,3.6,4.0,66,0.00,,---,0.00,VWS V13.01,2013-04-10 08:59:00,
2013-04-10 05:04:00,64.0,52.0,0.00,WSW,237,0.0,2.7,65,0.00,,---,0.00,VWS V13.01,2013-04-10 09:04:00,
2013-04-10 05:09:00,63.9,51.9,0.00,SW,231,0.0,2.7,65,0.00,,---,0.00,VWS V13.01,2013-04-10 09:09:00,
2013-04-10 05:14:00,63.5,51.5,0.00,SW,231,0.0,2.7,65,0.00,,---,0.00,VWS V13.01,2013-04-10 09:14:00,
2013-04-10 05:19:00,63.1,51.2,0.00,NNW,345,0.0,2.7,65,0.00,,---,0.00,VWS V13.01,2013-04-10 09:19:00,
2013-04-10 05:24:00,63.0,51.4,0.00,NNW,345,0.0,0.0,66,0.00,,---,0.00,VWS V13.01,2013-04-10 09:24:00,
2013-04-10 05:29:00,62.8,51.3,0.00,NNW,345,0.0,0.0,66,0.00,,---,0.00,VWS V13.01,2013-04-10 09:29:00,
2013-04-10 05:34:00,62.6,51.1,0.00,NNW,345,0.0,0.0,66,0.00,,---,0.00,VWS V13.01,2013-04-10 09:34:00,
2013-04-10 05:39:00,62.4,51.3,0.00,NNW,345,0.0,0.0,67,0.00,,---,0.00,VWS V13.01,2013-04-10 09:39:00,
2013-04-10 05:44:00,62.2,51.2,0.00,NNW,345,0.0,0.0,67,0.00,,---,0.00,VWS V13.01,2013-04-10 09:44:00,
2013-04-10 05:49:00,62.1,51.0,0.00,NNW,345,0.0,0.0,67,0.00,,---,0.00,VWS V13.01,2013-04-10 09:49:00,
2013-04-10 05:54:00,61.7,51.0,0.00,NNW,345,0.0,0.0,68,0.00,,---,0.00,VWS V13.01,2013-04-10 09:54:00,
2013-04-10 05:59:00,61.5,51.3,0.00,NNW,345,0.0,0.0,69,0.00,,---,0.00,VWS V13.01,2013-04-10 09:59:00,
2013-04-10 06:04:00,61.5,51.3,0.00,NNW,328,0.0,0.0,69,0.00,,---,0.00,VWS V13.01,2013-04-10 10:04:00,
2013-04-10 06:09:00,61.5,51.7,0.00,NNW,328,0.0,0.0,70,0.00,,---,0.00,VWS V13.01,2013-04-10 10:09:00,
2013-04-10 06:15:00,61.5,51.7,0.00,NNW,328,0.0,0.0,70,0.00,,---,0.00,VWS V13.01,2013-04-10 10:15:00,
2013-04-10 06:20:00,61.7,51.8,0.00,NNW,328,0.0,0.0,70,0.00,,---,0.00,VWS V13.01,2013-04-10 10:20:00,
2013-04-10 06:25:00,61.7,51.8,0.00,NNW,328,0.0,0.0,70,0.00,,---,0.00,VWS V13.01,2013-04-10 10:25:00,
2013-04-10 06:30:00,61.5,51.3,0.00,West,271,0.0,0.0,69,0.00,,---,0.00,VWS V13.01,2013-04-10 10:30:00,
2013-04-10 06:35:00,61.3,51.5,0.00,West,271,0.0,0.0,70,0.00,,---,0.00,VWS V13.01,2013-04-10 10:35:00,
2013-04-10 06:40:00,61.2,51.3,0.00,West,271,0.0,0.0,70,0.00,,---,0.00,VWS V13.01,2013-04-10 10:40:00,
2013-04-10 06:45:00,61.2,51.3,0.00,West,271,0.0,0.0,70,0.00,,---,0.00,VWS V13.01,2013-04-10 10:45:00,
2013-04-10 06:50:00,61.0,51.1,0.00,West,271,0.0,0.0,70,0.00,,---,0.00,VWS V13.01,2013-04-10 10:50:00,
2013-04-10 06:55:00,60.6,50.8,0.00,SW,222,0.0,0.0,70,0.00,,---,0.00,VWS V13.01,2013-04-10 10:55:00,
2013-04-10 07:00:00,60.4,50.6,0.00,SW,222,0.0,0.0,70,0.00,,---,0.00,VWS V13.01,2013-04-10 11:00:00,
2013-04-10 07:05:00,60.1,50.3,0.00,SW,222,0.0,0.0,70,0.00,,---,0.00,VWS V13.01,2013-04-10 11:05:00,
2013-04-10 07:10:00,59.9,50.5,0.00,SW,222,0.0,0.0,71,0.00,,---,0.00,VWS V13.01,2013-04-10 11:10:00,
2013-04-10 07:15:00,59.9,50.9,0.00,SW,228,0.0,0.0,72,0.00,,---,0.00,VWS V13.01,2013-04-10 11:15:00,
2013-04-10 07:20:00,60.1,51.0,0.00,SW,228,0.0,0.0,72,0.00,,---,0.00,VWS V13.01,2013-04-10 11:20:00,
2013-04-10 07:25:00,60.1,51.0,0.00,SW,228,0.0,0.0,72,0.00,,---,0.00,VWS V13.01,2013-04-10 11:25:00,
2013-04-10 07:30:00,60.1,51.0,0.00,SW,228,0.0,0.0,72,0.00,,---,0.00,VWS V13.01,2013-04-10 11:30:00,
2013-04-10 07:35:00,60.1,51.4,0.00,SW,228,0.0,0.0,73,0.00,,---,0.00,VWS V13.01,2013-04-10 11:35:00,
2013-04-10 07:40:00,60.1,51.4,0.00,SW,228,0.0,0.0,73,0.00,,---,0.00,VWS V13.01,2013-04-10 11:40:00,
2013-04-10 07:46:00,60.3,51.6,0.00,SW,229,0.0,0.0,73,0.00,,---,0.00,VWS V13.01,2013-04-10 11:46:00,
2013-04-10 07:51:00,60.4,51.8,0.00,SW,229,0.0,0.0,73,0.00,,---,0.00,VWS V13.01,2013-04-10 11:51:00,
2013-04-10 07:56:00,60.4,51.8,0.00,West,281,0.0,2.2,73,0.00,,---,0.00,VWS V13.01,2013-04-10 11:56:00,
2013-04-10 08:01:00,60.8,52.1,0.00,West,281,0.0,0.0,73,0.00,,---,0.00,VWS V13.01,2013-04-10 12:01:00,
2013-04-10 08:06:00,61.2,52.5,0.00,SW,233,0.0,0.0,73,0.00,,---,0.00,VWS V13.01,2013-04-10 12:06:00,
2013-04-10 08:11:00,61.7,53.0,0.00,SW,235,0.0,0.0,73,0.00,,---,0.00,VWS V13.01,2013-04-10 12:11:00,
2013-04-10 08:17:00,62.1,53.3,0.00,West,271,0.0,0.0,73,0.00,,---,0.00,VWS V13.01,2013-04-10 12:17:00,
2013-04-10 08:22:00,62.6,53.5,0.00,West,271,0.0,0.0,72,0.00,,---,0.00,VWS V13.01,2013-04-10 12:22:00,
2013-04-10 08:27:00,63.0,53.8,0.00,West,273,0.0,0.0,72,0.00,,---,0.00,VWS V13.01,2013-04-10 12:27:00,
2013-04-10 08:33:00,63.5,54.3,0.00,SW,232,3.6,4.9,72,0.00,,---,0.00,VWS V13.01,2013-04-10 12:33:00,
2013-04-10 08:38:00,64.2,54.6,0.00,SSW,208,5.8,5.8,71,0.00,,---,0.00,VWS V13.01,2013-04-10 12:38:00,
2013-04-10 08:43:00,64.8,54.4,0.00,WSW,248,0.0,0.0,69,0.00,,---,0.00,VWS V13.01,2013-04-10 12:43:00,
2013-04-10 08:48:00,65.5,54.7,0.00,SSW,202,2.2,6.3,68,0.00,,---,0.00,VWS V13.01,2013-04-10 12:48:00,
2013-04-10 08:53:00,66.2,54.5,0.00,WNW,303,2.7,6.3,66,0.00,,---,0.00,VWS V13.01,2013-04-10 12:53:00,
2013-04-10 08:58:00,66.9,53.9,0.00,WSW,252,3.1,6.3,63,0.00,,---,0.00,VWS V13.01,2013-04-10 12:58:00,
2013-04-10 09:03:00,67.6,52.8,0.00,WNW,294,4.0,5.4,59,0.00,,---,0.00,VWS V13.01,2013-04-10 13:03:00,
2013-04-10 09:08:00,68.2,52.9,0.00,WSW,238,3.1,5.4,58,0.00,,---,0.00,VWS V13.01,2013-04-10 13:08:00,
2013-04-10 09:13:00,68.7,52.4,0.00,WNW,301,0.0,5.4,56,0.00,,---,0.00,VWS V13.01,2013-04-10 13:13:00,
2013-04-10 09:18:00,69.4,53.1,0.00,SSW,201,2.7,5.4,56,0.00,,---,0.00,VWS V13.01,2013-04-10 13:18:00,
2013-04-10 09:23:00,70.0,52.1,0.00,WSW,255,3.1,4.0,53,0.00,,---,0.00,VWS V13.01,2013-04-10 13:23:00,
2013-04-10 09:28:00,70.5,52.1,0.00,WNW,303,3.6,4.0,52,0.00,,---,0.00,VWS V13.01,2013-04-10 13:28:00,
2013-04-10 09:34:00,71.1,52.0,0.00,WNW,286,2.2,4.0,51,0.00,,---,0.00,VWS V13.01,2013-04-10 13:34:00,
2013-04-10 09:39:00,71.6,52.0,0.00,West,278,0.0,4.0,50,0.00,,---,0.00,VWS V13.01,2013-04-10 13:39:00,
2013-04-10 09:44:00,72.3,52.7,0.00,SSE,164,2.7,3.6,50,0.00,,---,0.00,VWS V13.01,2013-04-10 13:44:00,
2013-04-10 09:49:00,72.9,51.5,0.00,SSW,205,2.7,3.6,47,0.00,,---,0.00,VWS V13.01,2013-04-10 13:49:00,
2013-04-10 09:54:00,73.4,50.2,0.00,SSE,148,4.0,5.8,44,0.00,,---,0.00,VWS V13.01,2013-04-10 13:54:00,
2013-04-10 09:59:00,73.8,51.1,0.00,ESE,109,2.7,5.8,45,0.00,,---,0.00,VWS V13.01,2013-04-10 13:59:00,
2013-04-10 10:04:00,74.1,50.8,0.00,SSW,193,2.2,5.4,44,0.00,,---,0.00,VWS V13.01,2013-04-10 14:04:00,
2013-04-10 10:09:00,74.5,50.5,0.00,SW,230,3.1,5.4,43,0.00,,---,0.00,VWS V13.01,2013-04-10 14:09:00,
2013-04-10 10:14:00,74.8,51.5,0.00,SSE,158,4.0,5.8,44,0.00,,---,0.00,VWS V13.01,2013-04-10 14:14:00,
2013-04-10 10:19:00,75.4,51.3,0.00,SW,221,7.2,7.2,43,0.00,,---,0.00,VWS V13.01,2013-04-10 14:19:00,
2013-04-10 10:24:00,75.7,50.4,0.00,North,6,0.0,6.3,41,0.00,,---,0.00,VWS V13.01,2013-04-10 14:24:00,
2013-04-10 10:29:00,76.1,50.7,0.00,SSW,193,5.4,6.3,41,0.00,,---,0.00,VWS V13.01,2013-04-10 14:29:00,
2013-04-10 10:34:00,76.6,50.5,0.00,SSW,210,5.4,6.3,40,0.00,,---,0.00,VWS V13.01,2013-04-10 14:34:00,
2013-04-10 10:39:00,77.0,50.9,0.00,WSW,243,3.1,6.3,40,0.00,,---,0.00,VWS V13.01,2013-04-10 14:39:00,
2013-04-10 10:44:00,77.4,50.5,0.00,SW,223,5.4,5.8,39,0.00,,---,0.00,VWS V13.01,2013-04-10 14:44:00,
2013-04-10 10:49:00,78.1,50.4,0.00,WNW,293,3.1,7.6,38,0.00,,---,0.00,VWS V13.01,2013-04-10 14:49:00,
2013-04-10 10:54:00,78.6,50.2,0.00,West,273,2.7,7.6,37,0.00,,---,0.00,VWS V13.01,2013-04-10 14:54:00,
2013-04-10 10:59:00,79.0,49.0,0.00,SE,144,6.3,8.1,35,0.00,,---,0.00,VWS V13.01,2013-04-10 14:59:00,
2013-04-10 11:04:00,79.5,50.2,0.00,WNW,282,2.2,8.1,36,0.00,,---,0.00,VWS V13.01,2013-04-10 15:04:00,
2013-04-10 11:09:00,80.1,49.2,0.00,WNW,297,0.0,8.1,34,0.00,,---,0.00,VWS V13.01,2013-04-10 15:09:00,
2013-04-10 11:14:00,80.8,48.2,0.00,SSW,210,6.3,8.1,32,0.00,,---,0.00,VWS V13.01,2013-04-10 15:14:00,
2013-04-10 11:20:00,81.3,48.7,0.00,South,190,4.0,8.1,32,0.00,,---,0.00,VWS V13.01,2013-04-10 15:20:00,
2013-04-10 11:25:00,81.7,48.1,0.00,SW,229,5.4,5.8,31,0.00,,---,0.00,VWS V13.01,2013-04-10 15:25:00,
2013-04-10 11:30:00,81.9,48.3,0.00,South,186,5.4,7.6,31,0.00,,---,0.00,VWS V13.01,2013-04-10 15:30:00,
2013-04-10 11:35:00,82.2,48.6,0.00,West,261,4.9,7.6,31,0.00,,---,0.00,VWS V13.01,2013-04-10 15:35:00,
2013-04-10 11:40:00,82.6,48.0,0.00,West,275,0.0,7.6,30,0.00,,---,0.00,VWS V13.01,2013-04-10 15:40:00,
2013-04-10 11:45:00,83.1,48.5,0.00,West,273,3.6,8.1,30,0.00,,---,0.00,VWS V13.01,2013-04-10 15:45:00,
2013-04-10 11:50:00,83.5,48.8,0.00,SSW,207,5.4,8.1,30,0.00,,---,0.00,VWS V13.01,2013-04-10 15:50:00,
2013-04-10 11:55:00,83.5,48.8,0.00,SSE,166,5.4,8.1,30,0.00,,---,0.00,VWS V13.01,2013-04-10 15:55:00,
2013-04-10 12:00:00,83.7,48.1,0.00,WSW,250,0.0,8.7,29,0.00,,---,0.00,VWS V13.01,2013-04-10 16:00:00,
2013-04-10 12:05:00,84.2,48.5,0.00,NW,306,4.0,5.4,29,0.00,,---,0.00,VWS V13.01,2013-04-10 16:05:00,
2013-04-10 12:10:00,84.7,49.0,0.00,NNE,33,4.0,9.6,29,0.00,,---,0.00,VWS V13.01,2013-04-10 16:10:00,
2013-04-10 12:15:00,85.1,49.3,0.00,NNW,333,3.1,9.6,29,0.00,,---,0.00,VWS V13.01,2013-04-10 16:15:00,
2013-04-10 12:20:00,85.6,49.8,0.00,SW,234,4.9,9.6,29,0.00,,---,0.00,VWS V13.01,2013-04-10 16:20:00,
2013-04-10 12:25:00,86.2,50.2,0.00,South,170,2.7,4.9,29,0.00,,---,0.00,VWS V13.01,2013-04-10 16:25:00,
2013-04-10 12:30:00,86.4,49.4,0.00,West,275,3.1,4.9,28,0.00,,---,0.00,VWS V13.01,2013-04-10 16:30:00,
2013-04-10 12:35:00,86.9,47.9,0.00,WNW,301,2.7,4.9,26,0.00,,---,0.00,VWS V13.01,2013-04-10 16:35:00,
2013-04-10 12:40:00,87.1,47.0,0.00,NNW,337,7.2,7.2,25,0.00,,---,0.00,VWS V13.01,2013-04-10 16:40:00,
2013-04-10 12:45:00,87.3,46.1,0.00,West,281,2.7,8.3,24,0.00,,---,0.00,VWS V13.01,2013-04-10 16:45:00,
2013-04-10 12:50:00,87.6,46.4,0.00,North,357,2.7,8.3,24,0.00,,---,0.00,VWS V13.01,2013-04-10 16:50:00,
2013-04-10 12:55:00,87.8,47.6,0.00,South,187,5.4,8.3,25,0.00,,---,0.00,VWS V13.01,2013-04-10 16:55:00,
2013-04-10 13:00:00,88.2,45.7,0.00,SSW,196,5.8,5.8,23,0.00,,---,0.00,VWS V13.01,2013-04-10 17:00:00,
2013-04-10 13:05:00,88.5,47.2,0.00,West,268,3.6,7.6,24,0.00,,---,0.00,VWS V13.01,2013-04-10 17:05:00,
2013-04-10 13:10:00,88.9,46.3,0.00,East,83,5.8,8.1,23,0.00,,---,0.00,VWS V13.01,2013-04-10 17:10:00,
2013-04-10 13:15:00,88.9,46.3,0.00,SE,131,6.3,10.1,23,0.00,,---,0.00,VWS V13.01,2013-04-10 17:15:00,
2013-04-10 13:20:00,88.5,46.0,0.00,SSW,203,3.1,6.3,23,0.00,,---,0.00,VWS V13.01,2013-04-10 17:20:00,
2013-04-10 13:26:00,89.1,46.5,0.00,South,185,6.3,6.3,23,0.00,,---,0.00,VWS V13.01,2013-04-10 17:26:00,
2013-04-10 13:31:00,89.6,45.8,0.00,SSE,153,2.2,8.1,22,0.00,,---,0.00,VWS V13.01,2013-04-10 17:31:00,
2013-04-10 13:36:00,89.6,44.5,0.00,West,279,8.1,8.1,21,0.00,,---,0.00,VWS V13.01,2013-04-10 17:36:00,
2013-04-10 13:41:00,89.2,45.5,0.00,West,264,3.6,5.4,22,0.00,,---,0.00,VWS V13.01,2013-04-10 17:41:00,
2013-04-10 13:46:00,90.0,43.5,0.00,WSW,254,5.8,6.3,20,0.00,,---,0.00,VWS V13.01,2013-04-10 17:46:00,
2013-04-10 13:51:00,90.1,43.7,0.00,WNW,299,5.4,7.2,20,0.00,,---,0.00,VWS V13.01,2013-04-10 17:51:00,
2013-04-10 13:56:00,90.0,43.5,0.00,SSW,193,4.9,8.7,20,0.00,,---,0.00,VWS V13.01,2013-04-10 17:56:00,
2013-04-10 14:01:00,90.1,43.7,0.00,SW,226,4.9,8.1,20,0.00,,---,0.00,VWS V13.01,2013-04-10 18:01:00,
2013-04-10 14:06:00,90.3,43.8,0.00,SSE,168,5.4,8.3,20,0.00,,---,0.00,VWS V13.01,2013-04-10 18:06:00,
2013-04-10 14:11:00,90.7,44.1,0.00,ESE,117,5.4,8.7,20,0.00,,---,0.00,VWS V13.01,2013-04-10 18:11:00,
2013-04-10 14:17:00,90.7,42.8,0.00,North,357,3.6,13.2,19,0.00,,---,0.00,VWS V13.01,2013-04-10 18:17:00,
2013-04-10 14:22:00,90.7,44.1,0.00,SSE,156,4.9,8.3,20,0.00,,---,0.00,VWS V13.01,2013-04-10 18:22:00,
2013-04-10 14:27:00,90.7,44.1,0.00,WNW,296,3.6,10.1,20,0.00,,---,0.00,VWS V13.01,2013-04-10 18:27:00,
2013-04-10 14:32:00,91.2,44.6,0.00,NNW,328,2.7,10.1,20,0.00,,---,0.00,VWS V13.01,2013-04-10 18:32:00,
2013-04-10 14:37:00,91.4,43.4,0.00,SSE,150,6.7,10.1,19,0.00,,---,0.00,VWS V13.01,2013-04-10 18:37:00,
2013-04-10 14:42:00,91.2,43.2,0.00,NW,307,4.9,7.2,19,0.00,,---,0.00,VWS V13.01,2013-04-10 18:42:00,
2013-04-10 14:47:00,90.9,43.0,0.00,SW,229,0.0,8.1,19,0.00,,---,0.00,VWS V13.01,2013-04-10 18:47:00,
2013-04-10 14:52:00,91.2,43.2,0.00,WSW,241,7.6,8.7,19,0.00,,---,0.00,VWS V13.01,2013-04-10 18:52:00,
2013-04-10 14:57:00,91.0,43.1,0.00,WNW,296,6.3,8.7,19,0.00,,---,0.00,VWS V13.01,2013-04-10 18:57:00,
2013-04-10 15:03:00,91.0,43.1,0.00,South,181,10.1,10.1,19,0.00,,---,0.00,VWS V13.01,2013-04-10 19:03:00,
2013-04-10 15:08:00,91.2,43.2,0.00,WNW,288,2.7,10.5,19,0.00,,---,0.00,VWS V13.01,2013-04-10 19:08:00,
2013-04-10 15:13:00,91.8,43.7,0.00,SSW,202,6.3,10.5,19,0.00,,---,0.00,VWS V13.01,2013-04-10 19:13:00,
2013-04-10 15:18:00,91.9,43.8,0.00,WNW,302,5.4,10.5,19,0.00,,---,0.00,VWS V13.01,2013-04-10 19:18:00,
2013-04-10 15:23:00,92.3,44.1,0.00,SSW,192,4.0,5.4,19,0.00,,---,0.00,VWS V13.01,2013-04-10 19:23:00,
2013-04-10 15:28:00,92.3,44.1,0.00,SSW,193,6.3,7.6,19,0.00,,---,0.00,VWS V13.01,2013-04-10 19:28:00,
2013-04-10 15:33:00,92.5,44.3,0.00,SSE,157,5.8,8.3,19,0.00,,---,0.00,VWS V13.01,2013-04-10 19:33:00,
2013-04-10 15:38:00,91.6,43.5,0.00,WSW,256,4.0,10.5,19,0.00,,---,0.00,VWS V13.01,2013-04-10 19:38:00,
2013-04-10 15:43:00,91.2,43.2,0.00,SW,224,3.1,8.7,19,0.00,,---,0.00,VWS V13.01,2013-04-10 19:43:00,
2013-04-10 15:48:00,91.2,44.6,0.00,SE,145,3.6,8.7,20,0.00,,---,0.00,VWS V13.01,2013-04-10 19:48:00,
2013-04-10 15:53:00,91.0,44.4,0.00,WSW,256,4.0,9.6,20,0.00,,---,0.00,VWS V13.01,2013-04-10 19:53:00,
2013-04-10 15:58:00,91.4,43.4,0.00,WSW,246,6.3,9.6,19,0.00,,---,0.00,VWS V13.01,2013-04-10 19:58:00,
2013-04-10 16:03:00,92.1,42.6,0.00,WNW,297,3.6,7.6,18,0.00,,---,0.00,VWS V13.01,2013-04-10 20:03:00,
2013-04-10 16:08:00,92.5,44.3,0.00,West,281,3.1,7.6,19,0.00,,---,0.00,VWS V13.01,2013-04-10 20:08:00,
2013-04-10 16:13:00,93.0,44.7,0.00,SE,136,3.6,7.6,19,0.00,,---,0.00,VWS V13.01,2013-04-10 20:13:00,
2013-04-10 16:18:00,92.8,44.6,0.00,West,280,3.1,7.6,19,0.00,,---,0.00,VWS V13.01,2013-04-10 20:18:00,
2013-04-10 16:24:00,92.5,42.9,0.00,West,279,6.3,8.1,18,0.00,,---,0.00,VWS V13.01,2013-04-10 20:24:00,
2013-04-10 16:29:00,91.9,42.4,0.00,South,183,4.0,8.3,18,0.00,,---,0.00,VWS V13.01,2013-04-10 20:29:00,
2013-04-10 16:34:00,91.4,42.0,0.00,NNW,340,5.4,8.3,18,0.00,,---,0.00,VWS V13.01,2013-04-10 20:34:00,
2013-04-10 16:39:00,91.4,42.0,0.00,SW,229,5.4,8.7,18,0.00,,---,0.00,VWS V13.01,2013-04-10 20:39:00,
2013-04-10 16:44:00,91.2,43.2,0.00,WSW,237,2.7,10.1,19,0.00,,---,0.00,VWS V13.01,2013-04-10 20:44:00,
2013-04-10 16:49:00,91.2,43.2,0.00,SSW,197,3.6,10.1,19,0.00,,---,0.00,VWS V13.01,2013-04-10 20:49:00,
2013-04-10 16:54:00,90.9,43.0,0.00,SE,146,4.0,10.1,19,0.00,,---,0.00,VWS V13.01,2013-04-10 20:54:00,
2013-04-10 16:59:00,90.7,42.8,0.00,WSW,242,3.1,10.1,19,0.00,,---,0.00,VWS V13.01,2013-04-10 20:59:00,
2013-04-10 17:04:00,90.5,42.7,0.00,WNW,285,2.7,8.1,19,0.00,,---,0.00,VWS V13.01,2013-04-10 21:04:00,
2013-04-10 17:09:00,89.8,42.1,0.00,WSW,243,4.9,10.1,19,0.00,,---,0.00,VWS V13.01,2013-04-10 21:09:00,
2013-04-10 17:14:00,89.4,41.8,0.00,SW,231,3.1,10.1,19,0.00,,---,0.00,VWS V13.01,2013-04-10 21:14:00,
2013-04-10 17:19:00,89.1,42.8,0.00,NW,304,3.6,11.0,20,0.00,,---,0.00,VWS V13.01,2013-04-10 21:19:00,
2013-04-10 17:24:00,88.5,42.4,0.00,SSW,212,4.0,7.6,20,0.00,,---,0.00,VWS V13.01,2013-04-10 21:24:00,
2013-04-10 17:29:00,88.2,42.1,0.00,SSW,211,7.6,7.6,20,0.00,,---,0.00,VWS V13.01,2013-04-10 21:29:00,
2013-04-10 17:34:00,88.0,41.9,0.00,SW,225,4.0,10.1,20,0.00,,---,0.00,VWS V13.01,2013-04-10 21:34:00,
2013-04-10 17:39:00,87.6,41.6,0.00,South,173,2.7,10.1,20,0.00,,---,0.00,VWS V13.01,2013-04-10 21:39:00,
2013-04-10 17:44:00,87.4,41.5,0.00,NW,326,3.1,8.3,20,0.00,,---,0.00,VWS V13.01,2013-04-10 21:44:00,
2013-04-10 17:49:00,87.4,42.8,0.00,South,179,3.1,8.3,21,0.00,,---,0.00,VWS V13.01,2013-04-10 21:49:00,
2013-04-10 17:54:00,87.4,42.8,0.00,NNW,328,3.6,8.3,21,0.00,,---,0.00,VWS V13.01,2013-04-10 21:54:00,
2013-04-10 17:59:00,87.3,42.6,0.00,SSW,194,7.6,11.0,21,0.00,,---,0.00,VWS V13.01,2013-04-10 21:59:00,
2013-04-10 18:05:00,87.1,42.5,0.00,WSW,257,2.7,10.5,21,0.00,,---,0.00,VWS V13.01,2013-04-10 22:05:00,
2013-04-10 18:10:00,87.1,42.5,0.00,NW,324,3.1,10.5,21,0.00,,---,0.00,VWS V13.01,2013-04-10 22:10:00,
2013-04-10 18:15:00,86.5,42.0,0.00,NW,310,2.7,10.5,21,0.00,,---,0.00,VWS V13.01,2013-04-10 22:15:00,
2013-04-10 18:20:00,86.5,42.0,0.00,West,262,4.0,10.5,21,0.00,,---,0.00,VWS V13.01,2013-04-10 22:20:00,
2013-04-10 18:25:00,86.5,42.0,0.00,SW,226,0.0,5.4,21,0.00,,---,0.00,VWS V13.01,2013-04-10 22:25:00,
2013-04-10 18:30:00,86.4,41.9,0.00,East,96,3.1,5.4,21,0.00,,---,0.00,VWS V13.01,2013-04-10 22:30:00,
2013-04-10 18:35:00,86.0,41.6,0.00,North,10,4.0,5.4,21,0.00,,---,0.00,VWS V13.01,2013-04-10 22:35:00,
2013-04-10 18:40:00,85.8,41.4,0.00,SSW,202,2.7,5.4,21,0.00,,---,0.00,VWS V13.01,2013-04-10 22:40:00,
2013-04-10 18:45:00,85.6,41.3,0.00,SW,234,3.1,8.1,21,0.00,,---,0.00,VWS V13.01,2013-04-10 22:45:00,
2013-04-10 18:50:00,85.3,41.0,0.00,WSW,255,4.0,8.1,21,0.00,,---,0.00,VWS V13.01,2013-04-10 22:50:00,
2013-04-10 18:55:00,85.1,40.8,0.00,West,264,0.0,8.3,21,0.00,,---,0.00,VWS V13.01,2013-04-10 22:55:00,
2013-04-10 19:00:00,84.9,41.9,0.00,SW,219,3.1,3.1,22,0.00,,---,0.00,VWS V13.01,2013-04-10 23:00:00,
2013-04-10 19:05:00,84.7,41.7,0.00,West,264,2.7,8.3,22,0.00,,---,0.00,VWS V13.01,2013-04-10 23:05:00,
2013-04-10 19:10:00,84.6,41.6,0.00,SW,231,2.7,8.3,22,0.00,,---,0.00,VWS V13.01,2013-04-10 23:10:00,
2013-04-10 19:15:00,84.2,42.4,0.00,SW,236,0.0,8.3,23,0.00,,---,0.00,VWS V13.01,2013-04-10 23:15:00,
2013-04-10 19:20:00,83.7,42.0,0.00,WNW,296,2.7,5.4,23,0.00,,---,0.00,VWS V13.01,2013-04-10 23:20:00,
2013-04-10 19:26:00,83.3,42.8,0.00,West,273,0.0,5.4,24,0.00,,---,0.00,VWS V13.01,2013-04-10 23:26:00,
2013-04-10 19:31:00,82.9,42.5,0.00,WNW,294,0.0,5.8,24,0.00,,---,0.00,VWS V13.01,2013-04-10 23:31:00,
2013-04-10 19:36:00,82.6,44.3,0.00,SW,229,5.8,5.8,26,0.00,,---,0.00,VWS V13.01,2013-04-10 23:36:00,
2013-04-10 19:41:00,82.2,44.9,0.00,WSW,238,2.2,3.1,27,0.00,,---,0.00,VWS V13.01,2013-04-10 23:41:00,
2013-04-10 19:47:00,81.7,46.4,0.00,SW,229,2.2,5.4,29,0.00,,---,0.00,VWS V13.01,2013-04-10 23:47:00,
2013-04-10 19:52:00,81.3,47.0,0.00,SW,224,3.1,5.4,30,0.00,,---,0.00,VWS V13.01,2013-04-10 23:52:00,
2013-04-10 19:57:00,80.8,46.5,0.00,WNW,292,0.0,5.4,30,0.00,,---,0.00,VWS V13.01,2013-04-10 23:57:00,
2013-04-10 20:02:00,80.6,46.3,0.00,SSW,210,0.0,4.9,30,0.00,,---,0.00,VWS V13.01,2013-04-11 00:02:00,
2013-04-10 20:07:00,80.2,46.9,0.00,SW,220,0.0,4.9,31,0.00,,---,0.00,VWS V13.01,2013-04-11 00:07:00,
2013-04-10 20:12:00,79.9,46.6,0.00,SSW,206,0.0,4.9,31,0.00,,---,0.00,VWS V13.01,2013-04-11 00:12:00,
2013-04-10 20:17:00,79.5,46.3,0.00,South,179,2.7,4.9,31,0.00,,---,0.00,VWS V13.01,2013-04-11 00:17:00,
2013-04-10 20:22:00,79.3,46.1,0.00,SW,218,3.1,3.1,31,0.00,,---,0.00,VWS V13.01,2013-04-11 00:22:00,
2013-04-10 20:27:00,79.0,45.8,0.00,SW,222,0.0,4.0,31,0.00,,---,0.00,VWS V13.01,2013-04-11 00:27:00,
2013-04-10 20:32:00,78.6,46.3,0.00,SW,229,2.2,4.0,32,0.00,,---,0.00,VWS V13.01,2013-04-11 00:32:00,
2013-04-10 20:37:00,78.6,46.3,0.00,WSW,245,0.0,4.0,32,0.00,,---,0.00,VWS V13.01,2013-04-11 00:37:00,
2013-04-10 20:43:00,78.3,46.0,0.00,WSW,245,0.0,0.0,32,0.00,,---,0.00,VWS V13.01,2013-04-11 00:43:00,
2013-04-10 20:48:00,77.9,45.7,0.00,SW,230,0.0,0.0,32,0.00,,---,0.00,VWS V13.01,2013-04-11 00:48:00,
2013-04-10 20:53:00,77.5,46.2,0.00,SW,230,0.0,0.0,33,0.00,,---,0.00,VWS V13.01,2013-04-11 00:53:00,
2013-04-10 20:58:00,76.8,46.3,0.00,SW,230,0.0,0.0,34,0.00,,---,0.00,VWS V13.01,2013-04-11 00:58:00,
2013-04-10 21:03:00,76.3,46.7,0.00,SW,230,0.0,0.0,35,0.00,,---,0.00,VWS V13.01,2013-04-11 01:03:00,
2013-04-10 21:08:00,75.7,46.2,0.00,SW,230,0.0,0.0,35,0.00,,---,0.00,VWS V13.01,2013-04-11 01:08:00,
2013-04-10 21:13:00,75.2,46.4,0.00,SW,230,0.0,0.0,36,0.00,,---,0.00,VWS V13.01,2013-04-11 01:13:00,
2013-04-10 21:18:00,74.8,46.8,0.00,SW,230,0.0,0.0,37,0.00,,---,0.00,VWS V13.01,2013-04-11 01:18:00,
2013-04-10 21:23:00,74.5,47.2,0.00,SW,235,0.0,0.0,38,0.00,,---,0.00,VWS V13.01,2013-04-11 01:23:00,
2013-04-10 21:28:00,74.3,47.8,0.00,SW,235,0.0,0.0,39,0.00,,---,0.00,VWS V13.01,2013-04-11 01:28:00,
2013-04-10 21:33:00,73.9,47.5,0.00,SW,235,0.0,0.0,39,0.00,,---,0.00,VWS V13.01,2013-04-11 01:33:00,
2013-04-10 21:39:00,73.4,48.3,0.00,WNW,294,0.0,0.0,41,0.00,,---,0.00,VWS V13.01,2013-04-11 01:39:00,
2013-04-10 21:44:00,73.0,48.6,0.00,WNW,294,0.0,0.0,42,0.00,,---,0.00,VWS V13.01,2013-04-11 01:44:00,
2013-04-10 21:49:00,72.7,48.3,0.00,WNW,294,0.0,0.0,42,0.00,,---,0.00,VWS V13.01,2013-04-11 01:49:00,
2013-04-10 21:54:00,72.5,48.1,0.00,WNW,294,0.0,0.0,42,0.00,,---,0.00,VWS V13.01,2013-04-11 01:54:00,
2013-04-10 21:59:00,72.1,47.8,0.00,WNW,294,0.0,0.0,42,0.00,,---,0.00,VWS V13.01,2013-04-11 01:59:00,
2013-04-10 22:04:00,72.0,48.3,0.00,WNW,294,0.0,0.0,43,0.00,,---,0.00,VWS V13.01,2013-04-11 02:04:00,
2013-04-10 22:09:00,71.6,47.9,0.00,WSW,246,0.0,0.0,43,0.00,,---,0.00,VWS V13.01,2013-04-11 02:09:00,
2013-04-10 22:14:00,71.2,48.2,0.00,WSW,246,0.0,0.0,44,0.00,,---,0.00,VWS V13.01,2013-04-11 02:14:00,
2013-04-10 22:19:00,70.9,48.5,0.00,South,191,0.0,3.1,45,0.00,,---,0.00,VWS V13.01,2013-04-11 02:19:00,
2013-04-10 22:24:00,70.5,48.8,0.00,South,191,0.0,0.0,46,0.00,,---,0.00,VWS V13.01,2013-04-11 02:24:00,
2013-04-10 22:29:00,70.3,48.6,0.00,South,191,0.0,0.0,46,0.00,,---,0.00,VWS V13.01,2013-04-11 02:29:00,
2013-04-10 22:34:00,70.0,48.8,0.00,SSW,205,0.0,0.0,47,0.00,,---,0.00,VWS V13.01,2013-04-11 02:34:00,
2013-04-10 22:39:00,69.8,48.7,0.00,SSW,205,0.0,0.0,47,0.00,,---,0.00,VWS V13.01,2013-04-11 02:39:00,
2013-04-10 22:44:00,69.6,49.1,0.00,SSW,205,0.0,0.0,48,0.00,,---,0.00,VWS V13.01,2013-04-11 02:44:00,
2013-04-10 22:49:00,69.4,48.9,0.00,SSW,205,0.0,0.0,48,0.00,,---,0.00,VWS V13.01,2013-04-11 02:49:00,
2013-04-10 22:54:00,69.3,49.3,0.00,SSW,197,0.0,0.0,49,0.00,,---,0.00,VWS V13.01,2013-04-11 02:54:00,
2013-04-10 22:59:00,69.1,49.1,0.00,WSW,253,0.0,0.0,49,0.00,,---,0.00,VWS V13.01,2013-04-11 02:59:00,
2013-04-10 23:04:00,69.1,49.7,0.00,WSW,254,0.0,0.0,50,0.00,,---,0.00,VWS V13.01,2013-04-11 03:04:00,
2013-04-10 23:09:00,68.9,49.0,0.00,WSW,243,0.0,0.0,49,0.00,,---,0.00,VWS V13.01,2013-04-11 03:09:00,
2013-04-10 23:14:00,68.5,48.6,0.00,WSW,243,0.0,0.0,49,0.00,,---,0.00,VWS V13.01,2013-04-11 03:14:00,
2013-04-10 23:19:00,68.4,49.0,0.00,WSW,243,0.0,0.0,50,0.00,,---,0.00,VWS V13.01,2013-04-11 03:19:00,
2013-04-10 23:24:00,68.0,49.2,0.00,WSW,243,0.0,0.0,51,0.00,,---,0.00,VWS V13.01,2013-04-11 03:24:00,
2013-04-10 23:30:00,67.8,49.6,0.00,WSW,243,0.0,0.0,52,0.00,,---,0.00,VWS V13.01,2013-04-11 03:30:00,
2013-04-10 23:35:00,67.8,49.6,0.00,WSW,243,0.0,0.0,52,0.00,,---,0.00,VWS V13.01,2013-04-11 03:35:00,
2013-04-10 23:40:00,67.8,50.1,0.00,WSW,243,0.0,0.0,53,0.00,,---,0.00,VWS V13.01,2013-04-11 03:40:00,
2013-04-10 23:45:00,67.8,50.1,0.00,WSW,243,0.0,0.0,53,0.00,,---,0.00,VWS V13.01,2013-04-11 03:45:00,
2013-04-10 23:50:00,67.6,49.4,0.00,WSW,243,0.0,0.0,52,0.00,,---,0.00,VWS V13.01,2013-04-11 03:50:00,
2013-04-10 23:55:00,67.5,49.2,0.00,WSW,243,0.0,0.0,52,0.00,,---,0.00,VWS V13.01,2013-04-11 03:55:00,